TimeEST,TemperatureF,Dew PointF,Humidity,Sea Level PressureIn,VisibilityMPH,Wind Direction,Wind SpeedMPH,Gust SpeedMPH,PrecipitationIn,Events,Conditions,WindDirDegrees,DateUTC
12:15 AM,46.6,25.7,44,30.21,10.0,SW,8.1,-,N/A,,Clear,230,2013-11-10 05:15:00
12:35 AM,45.5,26.6,48,30.20,10.0,WSW,9.2,-,N/A,,Clear,240,2013-11-10 05:35:00
12:55 AM,45.7,27.5,49,30.20,10.0,SW,9.2,18.4,N/A,,Clear,230,2013-11-10 05:55:00
1:15 AM,45.5,27.7,50,30.20,10.0,WSW,8.1,-,N/A,,Clear,240,2013-11-10 06:15:00
1:35 AM,45.1,28.2,52,30.19,10.0,WSW,8.1,17.3,N/A,,Clear,240,2013-11-10 06:35:00
1:55 AM,45.0,28.4,52,30.19,10.0,WSW,8.1,-,N/A,,Clear,240,2013-11-10 06:55:00
2:15 AM,44.8,28.8,53,30.19,10.0,WSW,5.8,-,N/A,,Clear,240,2013-11-10 07:15:00
2:35 AM,44.4,29.3,55,30.19,10.0,WSW,6.9,-,N/A,,Clear,240,2013-11-10 07:35:00
2:55 AM,44.2,29.3,56,30.19,10.0,WSW,6.9,-,N/A,,Clear,250,2013-11-10 07:55:00
3:15 AM,43.9,29.5,57,30.19,10.0,WSW,4.6,-,N/A,,Clear,240,2013-11-10 08:15:00
3:35 AM,43.9,29.7,57,30.19,10.0,WSW,4.6,-,N/A,,Clear,240,2013-11-10 08:35:00
3:55 AM,43.7,29.8,58,30.19,10.0,WSW,6.9,-,N/A,,Clear,250,2013-11-10 08:55:00
4:15 AM,43.3,30.0,59,30.20,10.0,WSW,8.1,-,N/A,,Clear,250,2013-11-10 09:15:00
4:35 AM,43.2,30.0,60,30.20,10.0,WSW,6.9,-,N/A,,Clear,240,2013-11-10 09:35:00
4:55 AM,42.4,30.0,61,30.19,10.0,WSW,5.8,-,N/A,,Clear,240,2013-11-10 09:55:00
5:15 AM,42.8,30.2,61,30.20,10.0,West,8.1,-,N/A,,Clear,260,2013-11-10 10:15:00
5:35 AM,41.5,30.2,64,30.20,10.0,West,8.1,-,N/A,,Clear,260,2013-11-10 10:35:00
5:55 AM,40.8,30.4,66,30.20,10.0,West,8.1,-,N/A,,Clear,260,2013-11-10 10:55:00
6:15 AM,41.9,30.7,65,30.21,10.0,WSW,6.9,-,N/A,,Clear,240,2013-11-10 11:15:00
6:35 AM,40.5,30.9,69,30.22,10.0,SW,3.5,-,N/A,,Clear,230,2013-11-10 11:35:00
6:55 AM,41.4,31.1,67,30.22,10.0,WSW,5.8,-,N/A,,Clear,250,2013-11-10 11:55:00
7:15 AM,41.0,31.3,68,30.22,10.0,West,8.1,-,N/A,,Clear,260,2013-11-10 12:15:00
7:35 AM,41.2,31.6,69,30.23,10.0,WSW,8.1,-,N/A,,Clear,250,2013-11-10 12:35:00
7:55 AM,41.2,31.8,69,30.24,10.0,WSW,5.8,-,N/A,,Clear,250,2013-11-10 12:55:00
8:15 AM,42.8,32.2,66,30.24,10.0,West,4.6,-,N/A,,Clear,260,2013-11-10 13:15:00
8:35 AM,44.1,32.7,64,30.24,10.0,WSW,6.9,-,N/A,,Clear,250,2013-11-10 13:35:00
8:55 AM,43.5,32.2,64,30.24,10.0,West,9.2,-,N/A,,Clear,270,2013-11-10 13:55:00
9:15 AM,45.5,33.4,63,30.25,10.0,West,10.4,-,N/A,,Clear,260,2013-11-10 14:15:00
9:35 AM,47.8,34.9,61,30.25,10.0,West,10.4,-,N/A,,Clear,260,2013-11-10 14:35:00
9:55 AM,48.7,35.2,60,30.24,10.0,WSW,10.4,16.1,N/A,,Clear,250,2013-11-10 14:55:00
10:15 AM,50.0,34.9,56,30.24,-9999.0,WSW,10.4,-,N/A,,Clear,250,2013-11-10 15:15:00
10:35 AM,50.9,35.1,55,30.24,-9999.0,WSW,12.7,-,N/A,,Clear,240,2013-11-10 15:35:00
10:55 AM,52.0,35.1,53,30.23,-9999.0,WSW,12.7,16.1,N/A,,Clear,240,2013-11-10 15:55:00
11:15 AM,53.8,34.7,48,30.23,-9999.0,West,8.1,16.1,N/A,,Clear,260,2013-11-10 16:15:00
11:35 AM,54.5,34.3,47,30.22,-9999.0,WSW,11.5,-,N/A,,Clear,250,2013-11-10 16:35:00
11:55 AM,55.0,33.6,44,30.22,-9999.0,West,11.5,18.4,N/A,,Clear,270,2013-11-10 16:55:00
12:15 PM,56.5,30.9,38,30.21,-9999.0,West,16.1,28.8,N/A,,Clear,280,2013-11-10 17:15:00
12:35 PM,56.8,30.2,36,30.20,-9999.0,West,12.7,25.3,N/A,,Clear,280,2013-11-10 17:35:00
12:55 PM,57.4,29.8,35,30.19,-9999.0,NW,10.4,23.0,N/A,,Clear,310,2013-11-10 17:55:00
1:15 PM,57.4,27.3,32,30.19,-9999.0,NW,15.0,28.8,N/A,,Clear,310,2013-11-10 18:15:00
1:35 PM,57.6,28.2,33,30.19,-9999.0,WNW,11.5,21.9,N/A,,Clear,290,2013-11-10 18:35:00
1:55 PM,58.3,27.3,31,30.19,-9999.0,West,12.7,25.3,N/A,,Clear,280,2013-11-10 18:55:00
2:15 PM,58.6,25.2,28,30.18,-9999.0,West,15.0,21.9,N/A,,Clear,280,2013-11-10 19:15:00
2:35 PM,58.3,24.1,27,30.18,-9999.0,WNW,12.7,18.4,N/A,,Clear,300,2013-11-10 19:35:00
2:55 PM,58.3,21.4,24,30.18,-9999.0,West,12.7,20.7,N/A,,Clear,280,2013-11-10 19:55:00
3:15 PM,57.4,16.0,20,30.18,-9999.0,NW,16.1,25.3,N/A,,Clear,310,2013-11-10 20:15:00
3:35 PM,57.2,16.9,21,30.19,-9999.0,WNW,16.1,21.9,N/A,,Clear,300,2013-11-10 20:35:00
3:55 PM,56.7,17.8,22,30.20,10.0,WNW,9.2,19.6,N/A,,Clear,290,2013-11-10 20:55:00
4:15 PM,55.8,21.2,26,30.20,10.0,NW,10.4,18.4,N/A,,Clear,310,2013-11-10 21:15:00
4:35 PM,55.0,21.9,28,30.21,10.0,NW,6.9,18.4,N/A,,Clear,320,2013-11-10 21:35:00
4:55 PM,53.8,23.9,31,30.22,10.0,NW,10.4,19.6,N/A,,Clear,320,2013-11-10 21:55:00
5:15 PM,52.5,23.9,33,30.23,10.0,NNW,9.2,-,N/A,,Clear,330,2013-11-10 22:15:00
5:35 PM,51.3,22.8,33,30.23,10.0,NNW,9.2,-,N/A,,Clear,330,2013-11-10 22:35:00
5:55 PM,50.0,22.6,34,30.24,-9999.0,NW,8.1,-,N/A,,Clear,320,2013-11-10 22:55:00
6:15 PM,49.3,21.9,34,30.25,-9999.0,NW,8.1,-,N/A,,Clear,320,2013-11-10 23:15:00
6:35 PM,48.2,21.2,34,30.26,-9999.0,NNW,6.9,-,N/A,,Clear,330,2013-11-10 23:35:00
6:55 PM,47.7,21.2,35,30.27,-9999.0,NW,9.2,-,N/A,,Clear,320,2013-11-10 23:55:00
7:15 PM,46.4,22.5,39,30.27,-9999.0,NNW,4.6,-,N/A,,Clear,340,2013-11-11 00:15:00
7:35 PM,45.5,23.5,42,30.28,-9999.0,NNW,8.1,-,N/A,,Clear,340,2013-11-11 00:35:00
7:55 PM,44.6,23.2,43,30.28,-9999.0,NNW,8.1,-,N/A,,Clear,340,2013-11-11 00:55:00
8:15 PM,43.9,23.0,44,30.29,-9999.0,NNW,8.1,-,N/A,,Clear,330,2013-11-11 01:15:00
8:35 PM,44.1,23.0,43,30.29,-9999.0,NNW,3.5,-,N/A,,Clear,330,2013-11-11 01:35:00
8:55 PM,43.2,23.0,45,30.29,-9999.0,NNW,5.8,-,N/A,,Clear,330,2013-11-11 01:55:00
9:15 PM,42.3,23.0,47,30.30,-9999.0,NNW,4.6,-,N/A,,Clear,330,2013-11-11 02:15:00
9:35 PM,41.9,23.0,47,30.30,-9999.0,NNW,3.5,-,N/A,,Clear,330,2013-11-11 02:35:00
9:55 PM,41.4,23.4,49,30.31,-9999.0,Calm,Calm,-,N/A,,Clear,0,2013-11-11 02:55:00
10:15 PM,41.0,23.4,50,30.31,-9999.0,Calm,Calm,-,N/A,,Clear,0,2013-11-11 03:15:00
10:35 PM,42.1,22.8,46,30.31,-9999.0,Calm,Calm,-,N/A,,Clear,0,2013-11-11 03:35:00
10:55 PM,42.4,22.1,44,30.31,-9999.0,Calm,Calm,-,N/A,,Clear,0,2013-11-11 03:55:00
11:15 PM,41.5,22.5,47,30.30,-9999.0,Calm,Calm,-,N/A,,Clear,0,2013-11-11 04:15:00
11:35 PM,40.6,23.0,49,30.30,-9999.0,Calm,Calm,-,N/A,,Clear,0,2013-11-11 04:35:00
11:55 PM,41.9,21.7,45,30.30,-9999.0,Calm,Calm,-,N/A,,Clear,0,2013-11-11 04:55:00